Location: Bilsen
(53.7722°N, 9.8765°E)
Time: 15:09:40
(UTC+00:00)

USA 116 - Pass Details

Date: 18 February 2020
Orbit: 405 x 834 km, 97.9° (Epoch: 18 November)

Event Time Altitude Azimuth Distance (km) Brightness Sun altitude
Rises 04:20:48 0° 151° (SSE) 2,378 7.3 -20.4°
Reaches altitude 10° 04:22:51 10° 146° (SE) 1,492 6.3 -20.1°
Maximum altitude 04:25:53 48° 70° (ENE) 544 4.1 -19.6°
Drops below altitude 10° 04:28:55 10° 355° (N) 1,483 5.9 -19.2°
Sets 04:30:57 0° 350° (N) 2,362 6.9 -18.9°
